Weather History for KSGS - March, 2013

Change the Weather History Date:

Sunday, March 10, 2013

  Actual Average (KMSP) Record (KMSP)
Temperature  
Mean Temperature 34 °F 30 °F  
Max Temperature 36 °F 38 °F 66 °F (2012)
Min Temperature 30 °F 22 °F -17 °F (1948)
Degree Days  
Heating Degree Days 32 35  
Month to date heating degree days 369  
Since 1 July heating degree days 6159  
Cooling Degree Days 0 0  
Month to date cooling degree days 0  
Year to date cooling degree days 0  
Moisture  
Dew Point 30 °F    
Average Humidity 86    
Maximum Humidity 100    
Minimum Humidity 76    
Precipitation  
Precipitation 0.00 in 0.06 in 0.59 in (1878)
Month to date precipitation 0.52  
Year to date precipitation 2.19  
Snow  
Snow 0.00 in 0.40 in 4.20 in (1956)
Month to date snowfall 4.1  
Since 1 July snowfall 45.8  
Snow Depth -    
Sea Level Pressure  
Sea Level Pressure 29.86 in    
Wind  
Wind Speed 11 mph (North)    
Max Wind Speed 17 mph    
Max Gust Speed 31 mph    
Visibility 9 miles    
Events Rain , Snow    
T = Trace of Precipitation, MM = Missing Value Source: NWS Daily Summary

Daily Weather History Graph

Daily Weather History Graph

Search for Another Location

Airport or City:

Trip Planner

Search our weather history database for the weather conditions in past years. The results will help you decide how hot, cold, wet, or windy it might be!

Date:

Astronomy

Mar. 10, 2013 Rise Set
Actual Time 7:33 AM CDT 7:12 PM CDT
Civil Twilight 7:04 AM CDT 7:41 PM CDT
Nautical Twilight 6:30 AM CDT 8:15 PM CDT
Astronomical Twilight 5:55 AM CDT 8:49 PM CDT
Moon 6:35 AM CDT (3/10) 6:20 PM CDT (3/10)
Length of Visible Light 12h 37m
Length of Day
11h 38m
Waning Crescent, 2% of the Moon is Illuminated
Mar 10
Waning Crescent
Mar 11
New
Mar 19
First Quarter
Mar 27
Full
Apr 2
Last Quarter

Hourly Weather History & Observations

Time (CDT) Temp. Windchill Dew Point Humidity Pressure Visibility Wind Dir Wind Speed Gust Speed Precip Events Conditions
12:12 AM 35.8 °F 33.0 °F 35.6 °F 99% 29.78 in 2.5 mi West 3.5 mph - N/A   Overcast
12:32 AM 36.0 °F 30.3 °F 35.8 °F 99% 29.77 in 4.0 mi NNW 6.9 mph - N/A Rain Light Rain
12:52 AM 35.8 °F 28.8 °F 35.6 °F 99% 29.77 in 7.0 mi NNW 9.2 mph - N/A   Overcast
1:12 AM 35.6 °F 28.0 °F 35.6 °F 100% 29.77 in 7.0 mi North 10.4 mph 18.4 mph N/A   Overcast
1:32 AM 35.2 °F 28.1 °F 35.1 °F 99% 29.77 in 10.0 mi North 9.2 mph - N/A Rain Light Rain
1:52 AM 35.1 °F 27.9 °F 34.7 °F 99% 29.78 in 10.0 mi North 9.2 mph - N/A   Overcast
3:12 AM 34.7 °F 27.5 °F 34.7 °F 100% 29.78 in 10.0 mi North 9.2 mph - N/A   Overcast
3:32 AM 34.7 °F 28.1 °F 34.7 °F 100% 29.79 in 10.0 mi North 8.1 mph - N/A   Overcast
3:52 AM 34.7 °F 28.1 °F 34.3 °F 99% 29.80 in 10.0 mi North 8.1 mph - N/A   Overcast
4:12 AM 34.7 °F 26.9 °F 34.3 °F 99% 29.81 in 10.0 mi North 10.4 mph - N/A   Overcast
4:32 AM 34.7 °F 27.5 °F 34.3 °F 99% 29.80 in 10.0 mi North 9.2 mph 17.3 mph N/A   Overcast
4:52 AM 34.3 °F 25.5 °F 34.2 °F 99% 29.78 in 10.0 mi North 12.7 mph 18.4 mph N/A   Overcast
5:12 AM 34.3 °F 25.9 °F 34.2 °F 99% 29.79 in 10.0 mi North 11.5 mph 17.3 mph N/A   Overcast
5:32 AM 34.2 °F 25.2 °F 34.0 °F 99% 29.78 in 10.0 mi North 12.7 mph 17.3 mph N/A   Overcast
5:52 AM 34.3 °F 26.5 °F 34.2 °F 99% 29.82 in 10.0 mi North 10.4 mph - N/A   Overcast
6:12 AM 34.2 °F 25.2 °F 34.0 °F 99% 29.82 in 10.0 mi North 12.7 mph 17.3 mph N/A   Overcast
6:32 AM 34.0 °F 25.0 °F 33.8 °F 99% 29.84 in 10.0 mi North 12.7 mph 18.4 mph N/A   Overcast
7:32 AM 33.4 °F 25.4 °F 33.3 °F 99% 29.85 in 10.0 mi North 10.4 mph 18.4 mph N/A   Overcast
7:52 AM 33.3 °F 23.7 °F 33.1 °F 99% 29.84 in 10.0 mi North 13.8 mph 18.4 mph N/A   Overcast
8:12 AM 33.3 °F 26.4 °F 33.1 °F 99% 29.87 in 10.0 mi North 8.1 mph 18.4 mph N/A   Overcast
8:32 AM 33.8 °F 24.3 °F 33.6 °F 99% 29.89 in 10.0 mi North 13.8 mph 20.7 mph N/A   Overcast
8:52 AM 34.7 °F 28.1 °F 34.3 °F 99% 29.90 in 10.0 mi North 8.1 mph 18.4 mph N/A   Overcast
9:12 AM 35.1 °F 26.9 °F 32.0 °F 89% 29.92 in 10.0 mi North 11.5 mph - N/A   Overcast
9:32 AM 35.6 °F 25.9 °F 31.6 °F 85% 29.93 in 10.0 mi North 16.1 mph 23.0 mph N/A   Overcast
9:52 AM 35.6 °F 27.1 °F 31.1 °F 84% 29.90 in 10.0 mi North 12.7 mph 20.7 mph N/A   Overcast
10:12 AM 35.8 °F 26.9 °F 30.7 °F 82% 29.93 in 10.0 mi North 13.8 mph 18.4 mph N/A   Overcast
10:32 AM 35.8 °F 27.8 °F 30.2 °F 80% 29.92 in 10.0 mi NNE 11.5 mph 20.7 mph N/A   Overcast
10:52 AM 36.0 °F 26.0 °F 30.0 °F 79% 29.93 in 10.0 mi NNE 17.3 mph 25.3 mph N/A   Overcast
11:12 AM 36.0 °F 28.5 °F 30.0 °F 79% 29.94 in 10.0 mi NNE 10.4 mph 17.3 mph N/A   Overcast
11:32 AM 36.0 °F 26.3 °F 30.2 °F 80% 29.92 in 10.0 mi North 16.1 mph 19.6 mph N/A   Overcast
11:52 AM 36.0 °F 26.7 °F 29.8 °F 78% 29.91 in 10.0 mi North 15.0 mph 23.0 mph N/A   Overcast
12:12 PM 35.8 °F 26.5 °F 29.8 °F 79% 29.91 in 10.0 mi North 15.0 mph 24.2 mph N/A   Overcast
12:32 PM 36.1 °F 29.3 °F 29.5 °F 77% 29.94 in 10.0 mi NNE 9.2 mph 19.6 mph N/A   Overcast
12:52 PM 36.0 °F 26.3 °F 29.5 °F 77% 29.92 in 10.0 mi NNE 16.1 mph 26.5 mph N/A   Overcast
1:12 PM 35.8 °F 25.7 °F 29.1 °F 77% 29.91 in 10.0 mi NNE 17.3 mph 21.9 mph N/A   Overcast
1:32 PM 35.8 °F 25.7 °F 28.8 °F 76% 29.89 in 10.0 mi NNE 17.3 mph 24.2 mph N/A   Overcast
1:52 PM 35.4 °F 26.4 °F 29.7 °F 80% 29.89 in 10.0 mi North 13.8 mph 18.4 mph N/A   Overcast
2:12 PM 35.1 °F 25.5 °F 29.8 °F 81% 29.89 in 10.0 mi North 15.0 mph - N/A   Overcast
2:32 PM 34.9 °F 26.2 °F 29.8 °F 82% 29.90 in 10.0 mi North 12.7 mph - N/A   Overcast
2:52 PM 34.7 °F 25.1 °F 29.5 °F 81% 29.90 in 10.0 mi NNE 15.0 mph 21.9 mph N/A   Overcast
3:12 PM 34.9 °F 26.6 °F 29.3 °F 80% 29.90 in 10.0 mi North 11.5 mph 16.1 mph N/A   Overcast
3:32 PM 35.1 °F 26.9 °F 29.1 °F 79% 29.90 in 10.0 mi North 11.5 mph 21.9 mph N/A   Overcast
3:52 PM 34.7 °F 25.1 °F 29.1 °F 80% 29.89 in 10.0 mi North 15.0 mph 20.7 mph N/A   Overcast
4:12 PM 34.7 °F 24.7 °F 28.8 °F 79% 29.89 in 10.0 mi North 16.1 mph 24.2 mph N/A   Overcast
4:32 PM 34.7 °F 25.9 °F 28.4 °F 78% 29.88 in 10.0 mi North 12.7 mph 19.6 mph N/A   Overcast
4:52 PM 34.5 °F 24.8 °F 28.4 °F 78% 29.87 in 10.0 mi NNE 15.0 mph 25.3 mph N/A   Overcast
5:12 PM 34.3 °F 24.6 °F 28.4 °F 79% 29.87 in 10.0 mi North 15.0 mph 20.7 mph N/A   Overcast
5:32 PM 34.2 °F 25.7 °F 28.2 °F 79% 29.86 in 10.0 mi North 11.5 mph 31.1 mph N/A   Overcast
5:52 PM 34.0 °F 26.6 °F 28.2 °F 79% 29.87 in 10.0 mi NNE 9.2 mph 21.9 mph N/A   Overcast
6:12 PM 34.2 °F 25.2 °F 28.0 °F 78% 29.87 in 10.0 mi North 12.7 mph 24.2 mph N/A   Overcast
6:32 PM 34.2 °F 24.8 °F 28.0 °F 78% 29.87 in 10.0 mi NNE 13.8 mph 19.6 mph N/A   Overcast
6:52 PM 34.0 °F 25.0 °F 27.9 °F 78% 29.86 in 10.0 mi North 12.7 mph 20.7 mph N/A   Overcast
7:12 PM 34.0 °F 24.6 °F 27.9 °F 78% 29.87 in 10.0 mi North 13.8 mph 21.9 mph N/A   Overcast
7:32 PM 33.8 °F 23.9 °F 27.9 °F 79% 29.88 in 10.0 mi North 15.0 mph 20.7 mph N/A   Overcast
7:52 PM 33.6 °F 23.7 °F 27.5 °F 78% 29.89 in 10.0 mi NNE 15.0 mph 23.0 mph N/A   Overcast
8:12 PM 33.4 °F 23.9 °F 27.5 °F 79% 29.89 in 10.0 mi North 13.8 mph 21.9 mph N/A   Overcast
8:32 PM 33.3 °F 25.1 °F 27.1 °F 78% 29.89 in 10.0 mi North 10.4 mph 19.6 mph N/A   Overcast
9:12 PM 33.3 °F 24.6 °F 27.3 °F 79% 29.89 in 10.0 mi NNE 11.5 mph 20.7 mph N/A   Overcast
9:32 PM 33.1 °F 24.9 °F 27.3 °F 79% 29.89 in 10.0 mi North 10.4 mph 16.1 mph N/A   Overcast
9:52 PM 32.9 °F 24.1 °F 27.1 °F 79% 29.88 in 10.0 mi North 11.5 mph 17.3 mph N/A   Overcast
10:12 PM 32.7 °F 23.0 °F 26.6 °F 78% 29.87 in 10.0 mi North 13.8 mph 21.9 mph N/A   Overcast
10:32 PM 32.4 °F 22.5 °F 26.4 °F 79% 29.87 in 10.0 mi North 13.8 mph 21.9 mph N/A   Overcast
10:52 PM 32.2 °F 22.7 °F 26.2 °F 79% 29.86 in 10.0 mi North 12.7 mph 20.7 mph N/A   Overcast
11:12 PM 32.0 °F 22.1 °F 26.1 °F 79% 29.86 in 10.0 mi NNE 13.8 mph 19.6 mph N/A   Overcast
11:32 PM 32.0 °F 22.1 °F 25.7 °F 78% 29.85 in 10.0 mi North 13.8 mph 20.7 mph N/A   Overcast
11:52 PM 32.0 °F 23.0 °F 26.4 °F 80% 29.85 in 5.0 mi North 11.5 mph 18.4 mph N/A Snow Light Snow
12:12 AM 31.5 °F 22.9 °F 26.8 °F 83% 29.85 in 3.0 mi NNE 10.4 mph 17.3 mph N/A Snow Light Snow
12:32 AM 31.1 °F 22.4 °F 27.0 °F 85% 29.84 in 3.0 mi North 10.4 mph 17.3 mph N/A Snow Light Snow
12:52 AM 30.9 °F 23.5 °F 27.1 °F 86% 29.84 in 4.0 mi North 8.1 mph - N/A Snow Light Snow